Location: Howard City Library
(37.4684°N, 96.2639°W)
Time: 07:08:12
(UTC+00:00)

USA 229 - Pass Details

Date: 18 February 2020
Orbit: 986 x 1226 km, 63.4° (Epoch: 26 March)

Event Time Altitude Azimuth Distance (km) Brightness Sun altitude
Exits shadow 10:03:49 60° 82° (E) 1,351 4.3 -37.6°
Drops below altitude 10° 10:10:37 10° 135° (SE) 3,160 6.4 -36.3°
Sets 10:13:27 0° 138° (SE) 4,133 7.1 -35.8°
